When you browse on this site, cookies collect data to enhance your experience and personalize the content and advertising you see.
Visit our Privacy Policy to learn more. By continuing to use the site, you agree to this use of cookies and data.

Stündliche Wetter Bolshie Karmaly

Heute, 21 September, Montag

Zeit Temperatur Niederschläge Wind Luftdruck Luftfeuchtigkeit
00:00 +4°C° 0 mm 8 m/S 744 mmHg 87%
01:00 +4°C° 0 mm 8 m/S 744 mmHg 86%
02:00 +4°C° 0 mm 8 m/S 744 mmHg 86%
03:00 +4°C° 0 mm 7 m/S 745 mmHg 85%
04:00 +3°C° 0 mm 7 m/S 745 mmHg 87%
05:00 +3°C° 0 mm 7 m/S 746 mmHg 89%
06:00 +2°C° 0 mm 7 m/S 746 mmHg 91%
07:00 +3°C° 0 mm 7 m/S 746 mmHg 87%
08:00 +4°C° 0 mm 7 m/S 746 mmHg 83%
09:00 +5°C° 0 mm 7 m/S 746 mmHg 79%
10:00 +6°C° 0 mm 7 m/S 746 mmHg 75%
11:00 +6°C° 0 mm 7 m/S 746 mmHg 70%
12:00 +8°C° 0 mm 7 m/S 745 mmHg 66%
13:00 +7°C° 0.5 mm 8 m/S 745 mmHg 72%
14:00 +6°C° 0.5 mm 8 m/S 745 mmHg 78%
15:00 +6°C° 0.5 mm 9 m/S 745 mmHg 84%
16:00 +6°C° 0.4 mm 9 m/S 745 mmHg 85%
17:00 +6°C° 0.4 mm 9 m/S 744 mmHg 86%
18:00 +7°C° 0.4 mm 9 m/S 744 mmHg 87%
19:00 +7°C° 0.1 mm 8 m/S 744 mmHg 87%
20:00 +7°C° 0.1 mm 8 m/S 745 mmHg 87%
21:00 +7°C° 0.1 mm 8 m/S 745 mmHg 86%
22:00 +8°C° 0 mm 7 m/S 745 mmHg 88%
23:00 +8°C° 0 mm 7 m/S 745 mmHg 89%

Morgen, 22 September, Dienstag

Zeit Temperatur Niederschläge Wind Luftdruck Luftfeuchtigkeit
00:00 +7°C° 0 mm 6 m/S 745 mmHg 90%
01:00 +8°C° 0 mm 6 m/S 745 mmHg 91%
02:00 +8°C° 0 mm 6 m/S 746 mmHg 91%
03:00 +8°C° 0 mm 5 m/S 746 mmHg 92%
04:00 +8°C° 0 mm 5 m/S 746 mmHg 92%
05:00 +8°C° 0 mm 5 m/S 746 mmHg 91%
06:00 +8°C° 0 mm 5 m/S 746 mmHg 91%
07:00 +9°C° 0 mm 5 m/S 746 mmHg 87%
08:00 +9°C° 0 mm 6 m/S 747 mmHg 84%
09:00 +10°C° 0 mm 6 m/S 747 mmHg 80%
10:00 +11°C° 0 mm 7 m/S 746 mmHg 76%
11:00 +12°C° 0 mm 7 m/S 746 mmHg 71%
12:00 +14°C° 0 mm 7 m/S 746 mmHg 67%
13:00 +13°C° 0 mm 8 m/S 746 mmHg 67%
14:00 +15°C° 0 mm 8 m/S 746 mmHg 68%
15:00 +15°C° 0 mm 8 m/S 745 mmHg 68%
16:00 +15°C° 0 mm 7 m/S 745 mmHg 71%
17:00 +15°C° 0 mm 7 m/S 745 mmHg 74%
18:00 +14°C° 0 mm 6 m/S 745 mmHg 77%
19:00 +14°C° 0 mm 7 m/S 745 mmHg 78%
20:00 +14°C° 0 mm 7 m/S 745 mmHg 79%
21:00 +14°C° 0 mm 7 m/S 745 mmHg 80%
22:00 +12°C° 0 mm 7 m/S 745 mmHg 81%
23:00 +12°C° 0 mm 7 m/S 745 mmHg 81%

übermorgen, 23 September, Mittwoch

Zeit Temperatur Niederschläge Wind Luftdruck Luftfeuchtigkeit
00:00 +12°C° 0 mm 7 m/S 744 mmHg 81%
01:00 +12°C° 0 mm 7 m/S 745 mmHg 81%
02:00 +11°C° 0 mm 7 m/S 745 mmHg 80%
03:00 +11°C° 0 mm 7 m/S 745 mmHg 80%
04:00 +11°C° 0 mm 7 m/S 746 mmHg 82%
05:00 +10°C° 0 mm 7 m/S 746 mmHg 84%
06:00 +10°C° 0 mm 7 m/S 746 mmHg 86%
07:00 +11°C° 0 mm 7 m/S 747 mmHg 84%
08:00 +11°C° 0 mm 7 m/S 747 mmHg 82%
09:00 +12°C° 0 mm 7 m/S 748 mmHg 79%
10:00 +14°C° 0 mm 7 m/S 748 mmHg 75%
11:00 +15°C° 0 mm 7 m/S 748 mmHg 70%
12:00 +16°C° 0 mm 6 m/S 748 mmHg 65%
13:00 +17°C° 0 mm 6 m/S 749 mmHg 63%
14:00 +17°C° 0 mm 6 m/S 749 mmHg 61%
15:00 +17°C° 0 mm 6 m/S 750 mmHg 60%
16:00 +16°C° 0 mm 5 m/S 750 mmHg 66%
17:00 +15°C° 0 mm 4 m/S 750 mmHg 72%
18:00 +13°C° 0 mm 3 m/S 750 mmHg 78%
19:00 +13°C° 0 mm 3 m/S 751 mmHg 81%
20:00 +12°C° 0 mm 3 m/S 751 mmHg 84%
21:00 +13°C° 0 mm 2 m/S 752 mmHg 86%
22:00 +13°C° 0 mm 2 m/S 752 mmHg 87%
23:00 +12°C° 0 mm 1 m/S 752 mmHg 87%

24 September, Donnerstag

Zeit Temperatur Niederschläge Wind Luftdruck Luftfeuchtigkeit
00:00 +12°C° 0 mm 1 m/S 752 mmHg 87%
01:00 +12°C° 0 mm 1 m/S 752 mmHg 88%
02:00 +12°C° 0 mm 1 m/S 753 mmHg 88%
03:00 +12°C° 0 mm 1 m/S 753 mmHg 88%
04:00 +12°C° 0 mm 1 m/S 753 mmHg 89%
05:00 +12°C° 0 mm 1 m/S 754 mmHg 89%
06:00 +10°C° 0 mm 2 m/S 754 mmHg 90%
07:00 +13°C° 0 mm 2 m/S 754 mmHg 86%
08:00 +14°C° 0 mm 2 m/S 754 mmHg 82%
09:00 +14°C° 0 mm 3 m/S 754 mmHg 79%
10:00 +16°C° 0 mm 3 m/S 754 mmHg 74%
11:00 +17°C° 0 mm 3 m/S 754 mmHg 69%
12:00 +18°C° 0 mm 3 m/S 755 mmHg 65%
13:00 +18°C° 0 mm 3 m/S 755 mmHg 64%
14:00 +19°C° 0 mm 3 m/S 755 mmHg 63%
15:00 +19°C° 0 mm 3 m/S 755 mmHg 62%
16:00 +17°C° 0 mm 3 m/S 755 mmHg 66%
17:00 +16°C° 0 mm 2 m/S 755 mmHg 70%
18:00 +15°C° 0 mm 2 m/S 755 mmHg 74%
19:00 +15°C° 0 mm 2 m/S 755 mmHg 76%
20:00 +14°C° 0 mm 2 m/S 755 mmHg 78%
21:00 +13°C° 0 mm 3 m/S 756 mmHg 80%
22:00 +13°C° 0 mm 3 m/S 756 mmHg 82%
23:00 +12°C° 0 mm 3 m/S 756 mmHg 84%

25 September, Freitag

Zeit Temperatur Niederschläge Wind Luftdruck Luftfeuchtigkeit
00:00 +12°C° 0 mm 3 m/S 756 mmHg 86%
01:00 +12°C° 0 mm 3 m/S 756 mmHg 86%
02:00 +13°C° 0 mm 2 m/S 756 mmHg 86%
03:00 +13°C° 0 mm 2 m/S 756 mmHg 86%
04:00 +13°C° 0 mm 2 m/S 756 mmHg 86%
05:00 +12°C° 0 mm 2 m/S 756 mmHg 86%
06:00 +12°C° 0 mm 2 m/S 757 mmHg 86%
07:00 +13°C° 0 mm 3 m/S 757 mmHg 82%
08:00 +14°C° 0 mm 3 m/S 757 mmHg 77%
09:00 +16°C° 0 mm 3 m/S 757 mmHg 73%
10:00 +17°C° 0 mm 3 m/S 757 mmHg 70%
11:00 +18°C° 0 mm 3 m/S 757 mmHg 67%
12:00 +19°C° 0 mm 4 m/S 757 mmHg 64%
13:00 +19°C° 0 mm 3 m/S 757 mmHg 63%
14:00 +19°C° 0 mm 3 m/S 757 mmHg 62%
15:00 +19°C° 0 mm 3 m/S 757 mmHg 62%
16:00 +18°C° 0 mm 3 m/S 757 mmHg 66%
17:00 +17°C° 0 mm 3 m/S 757 mmHg 70%
18:00 +14°C° 0 mm 3 m/S 757 mmHg 74%
19:00 +14°C° 0 mm 3 m/S 757 mmHg 74%
20:00 +13°C° 0 mm 3 m/S 758 mmHg 74%
21:00 +13°C° 0 mm 3 m/S 758 mmHg 74%
22:00 +12°C° 0 mm 3 m/S 758 mmHg 74%
23:00 +12°C° 0 mm 3 m/S 758 mmHg 75%

26 September, Samstag

Zeit Temperatur Niederschläge Wind Luftdruck Luftfeuchtigkeit
00:00 +12°C° 0 mm 3 m/S 758 mmHg 75%
01:00 +12°C° 0 mm 3 m/S 758 mmHg 75%
02:00 +12°C° 0 mm 2 m/S 759 mmHg 75%
03:00 +12°C° 0 mm 2 m/S 759 mmHg 75%
04:00 +12°C° 0 mm 2 m/S 759 mmHg 74%
05:00 +12°C° 0 mm 2 m/S 759 mmHg 74%
06:00 +10°C° 0 mm 2 m/S 759 mmHg 74%
07:00 +13°C° 0 mm 2 m/S 759 mmHg 69%
08:00 +13°C° 0 mm 3 m/S 759 mmHg 64%
09:00 +14°C° 0 mm 3 m/S 760 mmHg 59%
10:00 +16°C° 0 mm 3 m/S 760 mmHg 56%
11:00 +17°C° 0 mm 3 m/S 760 mmHg 52%
12:00 +18°C° 0 mm 2 m/S 760 mmHg 49%
13:00 +18°C° 0 mm 3 m/S 760 mmHg 49%
14:00 +18°C° 0 mm 3 m/S 760 mmHg 49%
15:00 +19°C° 0 mm 3 m/S 760 mmHg 49%
16:00 +17°C° 0 mm 3 m/S 760 mmHg 54%
17:00 +16°C° 0 mm 3 m/S 760 mmHg 59%
18:00 +15°C° 0 mm 2 m/S 760 mmHg 64%
19:00 +14°C° 0 mm 2 m/S 760 mmHg 66%
20:00 +14°C° 0 mm 2 m/S 760 mmHg 69%
21:00 +13°C° 0 mm 2 m/S 760 mmHg 71%
22:00 +13°C° 0 mm 2 m/S 761 mmHg 71%
23:00 +13°C° 0 mm 2 m/S 761 mmHg 71%
Mehr zeigen